Filtrer par Nom Sexe Groupe d'age
MEDIOFONDO 2019
RG. DOS. TEMPS CAT RG. POINTS
1 3273 GASSER ARNAUD 01:42:06:00 C 1 0.00 Verbier, Suisse
2 3199 BESSON LEO 01:46:15:00 C 2 0.00 fontenelle, Suisse
3 3398 GUISOLAN JONATHAN 01:46:20:00 C 3 0.00 , Suisse
4 3218 NUTTENS CYRILLE 01:47:07:00 C 4 0.00 GIVISIEZ, Suisse
5 3350 CZIBERE ADRIAN 01:49:07:00 E 1 0.00 RHEINHAUSEN, Allemagne
6 3138 BENDER PIERRE-YVES 01:50:09:00 F 1 0.00 Erde, Suisse
7 3354 MARTINET BENOIT 01:50:31:00 C 5 0.00 Lausanne, Suisse
8 3228 POITEVIN LUC 01:52:20:00 C 6 0.00 Chartrettes, France
9 3326 NANCHEN RAPHAEL 01:55:22:00 E 2 0.00 Sion, Suisse
10 3381 HESS VINCENT 01:55:55:00 C 7 0.00 , Suisse
11 3414 FUMEAUX JONATHAN 01:56:45:00 D 1 0.00 , Suisse
12 3322 PRIETO SAMUEL 01:56:49:00 D 2 0.00 OULENS-SOUS-ECHALLENS, Suisse
13 3220 FROSSARD MATHIEU 01:56:53:00 C 8 0.00 Muraz, Suisse
14 3221 DEDERICHS GREGOR 01:58:16:00 XXX 1 0.00 Le Vaud, Suisse
15 3213 BRUTTOMESSO DANIEL 01:59:40:00 F 2 0.00 Bons en Chablais, France
16 3357 BUFFET KEVIN 02:01:55:00 D 3 0.00 Sergy, France
17 3317 BOURQUIN LUCIEN 02:01:56:00 C 9 0.00 LA TOUR-DE-PEILZ, Suisse
18 3355 GOVI JOHNNY 02:02:12:00 E 3 0.00 CHAMPVENT, Suisse
19 3031 CLEMENT JEREMY 02:03:52:00 C 10 0.00 VUILLECIN, France
20 3356 WALLET BAS 02:03:57:00 D 4 0.00 Sergy, France
21 3372 MAILLARD STEEVE 02:06:43:00 E 4 0.00 , Suisse
22 3071 SALLAI GABOR 02:06:50:00 E 5 0.00 Lausanne, Suisse
23 3302 FUSETTI ALFREDO 02:07:48:00 E 6 0.00 Bachenbülach, Suisse
24 3279 MONNET LEO 02:08:09:00 XXX 2 0.00 Miege, Suisse
25 3072 THOMA PETER 02:08:16:00 D 5 0.00 Alpnach, Suisse
26 3323 TOMAT ANTHONY 02:08:16:00 D 6 0.00 Le Crêt-du-Locle, Suisse
27 3260 TROLLIET DAVID 02:08:25:00 E 7 0.00 Daillens, Suisse
28 3332 ANKLIN NICOLAS 02:08:33:00 D 7 0.00 Genève, Suisse
29 3288 MORAND MAXIME 02:10:13:00 C 11 0.00 LE CHÂBLE VS, Suisse
30 3319 BICHSEL JEROME 02:11:18:00 C 12 0.00 Lausanne, Suisse
31 3411 QUARROZ DAVID 02:11:19:00 E 8 0.00 , Suisse
32 3190 EBINER JEROME 02:13:05:00 D 8 0.00 Martigny, Suisse
33 3299 ZAHLER GUILLAUME 02:13:18:00 C 13 0.00 Cessy, France
34 3389 MORAN JOHN-KEVIN 02:13:40:00 E 9 0.00 MONT-SUR-ROLLE, Suisse
35 3388 BERNEY FREDERIC 02:16:09:00 F 3 0.00 , Suisse
36 3370 VIDAL EMMANUEL 02:16:14:00 D 9 0.00 Chexbres, Suisse
37 3165 FERREIRA NUNES DIOGO 02:16:44:00 C 14 0.00 echarlens, Suisse
38 3403 OPPLIGER DANIEL 02:16:54:00 G1 1 0.00 , France
39 3204 ARNOLD PHILIPPE 02:18:59:00 G1 2 0.00 CONTHEY, Suisse
40 3176 GOOD MARKUS 02:19:12:00 F 4 0.00 CONTHEY, Suisse
41 3345 PHILIPONA JEAN-JACQUES 02:19:15:00 F 5 0.00 Farvagny, Suisse
42 3338 ROSSELET YVAN 02:20:14:00 E 10 0.00 Les Brenets, Suisse
43 3358 BARMAN JEREMY 02:20:31:00 D 10 0.00 Chemin Dessus, Suisse
44 3022 MARTIN SIMON 02:20:58:00 D 11 0.00 GRANGES VS, Suisse
45 3353 DERIVAZ MAXIME 02:21:07:00 D 12 0.00 Fully, Suisse
46 3233 BRIGUET PIERROT 02:21:16:00 E 11 0.00 Flanthey, Suisse
47 3282 PLUZHNIKOV ANDREI 02:21:44:00 C 15 0.00 DUBNA, France
48 3167 UBALDI GIANLUCA 02:21:46:00 D 13 0.00 TERRITET, Suisse
49 3082 PELLANDINI MAURO 02:22:12:00 E 12 0.00 Belp, Suisse
50 3380 MEIJSTRE SERGE 02:22:12:00 G1 3 0.00 , Suisse
51 3298 JACOT THEO 02:24:56:00 C 16 0.00 GENèVE, Suisse
52 3351 GALLAY JOEL 02:24:56:00 C 17 0.00 Suchy, Suisse
53 3116 CORDONIER GERALD 02:25:53:00 F 6 0.00 Erde, Suisse
54 3307 GHILARDI RAFAEL 02:26:04:00 E 13 0.00 Seeheim-Jugenheim, Allemagne
55 3122 GILLIOZ ALEXANDRE 02:26:06:00 D 14 0.00 Leytron, Suisse
56 3384 HEMLER TJEBBE 02:26:20:00 C 18 0.00 , Pays-Bas
57 3289 FIGUEIREDO DAVID 02:26:24:00 C 19 0.00 ST-LEONARD, Suisse
58 3413 SUCHET SéBASTIEN 02:26:33:00 XXX 3 0.00 MONTHEROD, SUISSE
59 3378 BOVEN ARMAND 02:26:56:00 G1 4 0.00 OVRONNAZ, Suisse
60 3352 MORET VALENTINE 02:27:54:00 A 1 0.00 Charmey, Suisse
61 3416 FERRO FELIPE 02:28:11:00 D 15 0.00 LAUSANNE, Suisse
62 3410 QUARROZ DAVID 02:28:18:00 G2 1 0.00 , Suisse
63 3139 GOUMAND CHRISTIAN 02:29:22:00 F 7 0.00 Trient, Suisse
64 3222 ALBRECHER NICOLE 02:30:26:00 A 2 0.00 Lausanne, Suisse
65 3195 ROCHAT ALEXIS 02:30:41:00 D 16 0.00 Lausanne, Suisse
66 3206 CAILLET GUILLAUME 02:31:05:00 D 17 0.00 Fully, Suisse
67 3406 VARONE JEAN PAUL 02:31:23:00 F 8 0.00 ,
68 3157 HUBER ROBERTO 02:31:28:00 D 18 0.00 La Villa (BZ), Italie
69 3152 GSPONER PHILIPPE 02:31:54:00 E 14 0.00 Vétroz, Suisse
70 3263 VAN BOXEM STEPHANE 02:32:24:00 F 9 0.00 GRIMISUAT, Suisse
71 3234 RIZZO STEFANO 02:32:40:00 C 20 0.00 Aigle, Suisse
72 3105 CASTELLA ISABELLE 02:33:05:00 A 3 0.00 Sion, Suisse
73 3134 SAVOY CEDRIC 02:33:10:00 D 19 0.00 Réchy, Suisse
74 3141 SAVOY PATRICK 02:33:10:00 G1 5 0.00 Sion, Suisse
75 3166 SVETLICHNYI MARK 02:33:30:00 E 15 0.00 Khimki (Moscow Region), Russie, Fédération De
76 3208 MARTIN JOSHUA 02:33:31:00 D 20 0.00 VESSY, Suisse
77 3179 VAUTHEY MARC 02:33:57:00 F 10 0.00 Hérémence, France
78 3281 WERLEN RENE 02:34:22:00 F 11 0.00 SIERRE, Suisse
79 3278 TOSI CHRISTOPHE 02:34:23:00 E 16 0.00 SIERRE, Suisse
80 3254 FIGUEIRA MATTHIAS 02:34:25:00 D 21 0.00 Corin-de-la-Crête, Suisse
81 3172 GEHIN CLEMENT 02:34:32:00 C 21 0.00 Aigle, Suisse
82 3344 BLANJEAN DOM 02:34:59:00 E 17 0.00 verbier, Suisse
83 3215 CEYSENS NICOLAS 02:35:54:00 XXX 4 0.00 Nimy, Belgique
84 3387 LOZZIA PABLO 02:36:16:00 F 12 0.00 Chamoson, Suisse
85 3333 POZO ANTONIO 02:36:43:00 D 22 0.00 Ecublens, Suisse
86 3276 GIGON QUENTIN 02:37:04:00 C 22 0.00 Reconvilier, Suisse
87 3045 VUILLEUMIER STEPHANE 02:37:07:00 E 18 0.00 LA CHAUX-DE-FONDS, Suisse
88 3029 INDERBITIN IRIS 02:37:41:00 A 4 0.00 ,
89 3374 ROH LOIC 02:37:48:00 C 23 0.00 Ayent, Suisse
90 3373 ALMADA TRISTAN 02:38:02:00 D 23 0.00 New York, États-Unis
91 3320 FEIJOO EMILIA 02:38:22:00 A 5 0.00 Ecublens, Suisse
92 3131 ROSSIER FREDERIC 02:38:33:00 D 24 0.00 SION, Suisse
93 3008 TROLLIET HENRI 02:38:42:00 G2 2 0.00 HAUTE-NENDAZ, Suisse
94 3252 ROMERO WILLIAM 02:39:26:00 D 25 0.00 VILLEURBANNE, France
95 3146 CALOZ MONIQUE 02:39:35:00 B 1 0.00 Bramois, Suisse
96 3296 CHEVRIER FLORIAN 02:40:03:00 D 26 0.00 Evolène, Suisse
97 3343 REUSE VALENTIN 02:40:38:00 D 27 0.00 Sion, Suisse
98 3371 MINGUET MATTHIEU 02:41:16:00 D 28 0.00 Lausanne, Suisse
99 3328 MONGE JULIEN 02:41:19:00 D 29 0.00 Chavannes-de-Bogis, Suisse
100 3402 RODUIT DIDIER 02:41:26:00 E 19 0.00 BEX, Suisse
101 3272 DUCREY PHILIPPE 02:41:29:00 F 13 0.00 Sion, Suisse
102 3240 AHMT LASSE 02:41:44:00 C 24 0.00 Aarhus N, Danemark
103 3287 FORMICA RAMONA 02:41:45:00 AB 1 0.00 Duillier, Suisse
104 3267 MONNET HUBERT 02:41:48:00 G1 6 0.00 SORNARD (NENDAZ), Suisse
105 3223 HERREN NICOLAS 02:42:04:00 E 20 0.00 Le Muids, Suisse
106 3212 POIRIER SYLVAIN 02:42:18:00 E 21 0.00 Niedergesteln, Suisse
107 3191 NIEDERBERGER MANUEL 02:42:19:00 C 25 0.00 Herlisberg, Suisse
108 3349 GENOLET LUC 02:42:20:00 F 14 0.00 Vex, Suisse
109 3117 PRALONG STEVE 02:42:43:00 E 22 0.00 leuk, Suisse
110 3225 SEURET DYLAN 02:43:03:00 C 26 0.00 Courtételle, Suisse
111 3313 CLIVAZ MELANIE 02:43:08:00 A 6 0.00 Daillon, Suisse
112 3098 SINDONI YVES 02:43:21:00 E 23 0.00 SAILLON, Suisse
113 3092 MUSY PIERRE-ALEXIS 02:43:42:00 D 30 0.00 Zurich, Suisse
114 3160 BRUHWILER DANIEL 02:43:45:00 F 15 0.00 Meilen, Suisse
115 3285 BORGEAUD MURIELLE 02:43:47:00 AB 2 0.00 champéry, Suisse
116 3264 RODUIT ANTHONY 02:43:50:00 C 27 0.00 Fully, Suisse
117 3261 ROSSIER ELOI 02:44:02:00 G1 7 0.00 Le Châble, Suisse
118 3324 MABILLARD FRANCK 02:44:03:00 F 16 0.00 Vétroz, Suisse
119 3316 CONSTANTIN YVES 02:44:06:00 F 17 0.00 Signèse / AYENT, Suisse
120 3407 FERRO FELIPE 02:44:12:00 E 24 0.00 LAUSANNE, Suisse
121 3100 CHARRIERE MICHEL 02:44:20:00 G1 8 0.00 ecublens, Suisse
122 3209 ROPARS ALAIN 02:44:33:00 F 18 0.00 BOGIS-BOSSEY, Suisse
123 3277 DUCREY JULIEN 02:44:53:00 C 28 0.00 Sion, Suisse
124 3049 VOUILLAMOZ CHRISTIAN 02:44:54:00 F 19 0.00 RIDDES, Suisse
125 3192 MULLER RAEL 02:45:20:00 C 29 0.00 Herlisberg, Suisse
126 3069 LOVEY VINCENT 02:45:42:00 C 30 0.00 BRUSON, Suisse
127 3181 LIBERT CEDRIC 02:45:50:00 C 31 0.00 Salins, Suisse
128 3303 CAVALLI PAOLA 02:46:26:00 AB 3 0.00 LES MAYENS-DE-SION, Suisse
129 3318 VAUCHER LAURENT 02:46:49:00 E 25 0.00 Le Châble, Suisse
130 3229 ARSICH CATHY 02:46:51:00 AB 4 0.00 DARDAGNY, Suisse
131 3145 CALOZ PIERRE 02:46:55:00 F 20 0.00 Bramois, Suisse
132 3161 FARQUET JEAN-PHILIPPE 02:47:05:00 D 31 0.00 Vollèges, Suisse
133 3115 AUER JEAN-BAPTISTE 02:47:31:00 E 26 0.00 Strasbourg, France
134 3106 LEWIS MARTIN 02:47:48:00 E 27 0.00 VOLLEGES, Suisse
135 3193 REGENASS YVES 02:48:26:00 D 32 0.00 Lausen, Suisse
136 3232 RENDA ANABELA 02:48:33:00 AB 5 0.00 SIGNÈSE (AYENT), Suisse
137 3241 LUYCKX JOANNE 02:49:47:00 AB 6 0.00 NEUENHOF, Suisse
138 3185 GIROUD ANDRE 02:49:50:00 F 21 0.00 Couvet, Suisse
139 3379 SALAMIN CHRISTIAN 02:50:13:00 F 22 0.00 , Suisse
140 3085 PETRI SIMON 02:50:18:00 C 32 0.00 LAUSANNE 25, Suisse
141 3182 SPORTONI JEAN PIERRE 02:50:42:00 F 23 0.00 ST LéONARD, Suisse
142 3274 BALDANZI DOMENICO 02:50:47:00 F 24 0.00 Rolle, Suisse
143 3011 PELLISSIER ANDRE 02:51:12:00 G2 3 0.00 SARREYER, Suisse
144 3094 SOLIOZ PAUL-HENRI 02:51:31:00 G2 4 0.00 SIERRE, Suisse
145 3325 POTTS ALAN 02:51:59:00 E 28 0.00 Hamilton, Bermudes
146 3334 LYON KATHERINE 02:51:59:00 AB 7 0.00 YVORNE, Suisse
147 3314 WASSINK TOM 02:52:45:00 D 33 0.00 Haren, Pays-Bas
148 3130 PASQUIER JEAN-BRUNO 02:53:13:00 F 25 0.00 BRAMOIS, Suisse
149 3256 GUEX JEROME 02:53:47:00 F 26 0.00 Pully, Suisse
150 3257 MARIN GUEX LORENA 02:53:48:00 AB 8 0.00 Pully, Suisse
151 3055 MAURY FLORIAN 02:54:08:00 D 34 0.00 Verbier, Suisse
152 3081 PELLANDINI SONIA 02:54:09:00 AB 9 0.00 Belp, Suisse
153 3113 GRILLON JEAN-MARIN 02:54:17:00 D 35 0.00 GENEVE, Suisse
154 3376 LOZZIA LAUTARO 02:54:21:00 XXX 5 0.00 Chamoson, Argentine
155 3304 FOLLONIER FRANCIS 02:54:25:00 E 29 0.00 HAUTE-NENDAZ, Suisse
156 3030 OEUVRARD ARNAUD 02:54:48:00 D 36 0.00 PONTARLIER, France
157 3262 ALOISE ELENA 02:54:53:00 AB 10 0.00 Daillens, Suisse
158 3020 CRUCHET NICOLAS 02:55:09:00 F 27 0.00 LAUSANNE, Suisse
159 3078 GRIESS LUDOVIC 02:55:09:00 E 30 0.00 Vionnaz, Suisse
160 3311 MOUNIR CHRISTOPHE 02:55:21:00 E 31 0.00 Haute-Nendaz, Suisse
161 3243 CRETTENAND JEAN-CLAUDE 02:55:33:00 G2 5 0.00 Sion, Suisse
162 3359 GERBIER ESTELLE 02:55:59:00 A 7 0.00 PARIS, France
163 3121 FUMEAUX THIERRY 02:56:09:00 E 32 0.00 Vétroz, Suisse
164 3217 DUBUIS ALEXIS 02:56:34:00 E 33 0.00 SAVIèSE, Suisse
165 3046 ANSERMET NICOLE 02:56:48:00 A 8 0.00 Léchelles, Suisse
166 3330 SCHISCHLICK CLARA 02:56:50:00 A 9 0.00 Vevey, Suisse
167 3270 TACK GENAEL 02:56:52:00 E 34 0.00 Saillon, Suisse
168 3173 WENGER LENA 02:57:03:00 A 10 0.00 La Tour-de-Peilz, Suisse
169 3064 LONG COLIN 02:57:12:00 G1 9 0.00 Cessy, France
170 3091 GRIESS LEA 02:57:19:00 AB 11 0.00 Vionnaz, Suisse
171 3153 PELOUIN FRANCK 02:57:41:00 E 35 0.00 CORBIèRES, Suisse
172 3076 GINO GINO 02:59:07:00 F 28 0.00 Poliez-Pittet, Suisse
173 3292 TINGUELY DAVID 02:59:13:00 E 36 0.00 Gumefens, Suisse
174 3250 DE GROOF PAULINE 02:59:40:00 A 11 0.00 Knokke, Belgique
175 3010 RUDAZ GERALD 02:59:45:00 G1 10 0.00 Bramoi, Suisse
176 3275 OAKMAN FRANCIS 03:01:00:00 XXX 6 0.00 Volleges, Suisse
177 3340 BRATTER MARC 03:01:08:00 G1 11 0.00 Verbier, Suisse
178 3109 HOSTETTMANN TIM 03:01:24:00 C 33 0.00 Malleray, Suisse
179 3255 GASPARINI MATHIEU 03:01:37:00 E 37 0.00 Lausanne, Suisse
180 3058 PUIPPE FREDERIC 03:01:40:00 D 37 0.00 Vens, Suisse
181 3127 RUFFINI LUCIANO 03:01:42:00 G1 12 0.00 Leytron, Suisse
182 3095 CRETTENAND ELRIC 03:01:56:00 XXX 7 0.00 BASSE-NENDAZ, Suisse
183 3015 LIMPENNY FREDERICK 03:01:58:00 F 29 0.00 SIGNY, Suisse
184 3001 Vercauteren Valerie 03:02:02:00 AB 12 0.00 Nancy-Sur-Cluses, France
185 3087 PETRI THIERRY 03:02:15:00 F 30 0.00 MUNDOLSHEIM, France
186 3056 CINA MATHIAS 03:02:53:00 D 38 0.00 Salgesch, Suisse
187 3077 CONTRERAS PABLO 03:02:57:00 F 31 0.00 AROLLA, Suisse
188 3178 RAUSIS PIERRE-YVES 03:02:58:00 F 32 0.00 Chandolin/Savièse, Suisse
189 3097 BOSSY CATHY 03:03:16:00 AB 13 0.00 Sévaz, Suisse
190 3125 JUNGO JOLEEN 03:03:33:00 A 12 0.00 Fully, Suisse
191 3306 VARONE VERONIQUE 03:03:38:00 AB 14 0.00 Savièse, Suisse
192 3002 Michaux Arpad 03:03:49:00 E 38 0.00 Nancy-Sur-Cluses, France
193 3339 RICHARD SEBASTIEN 03:04:00:00 E 39 0.00 Vuisternens-en-Ogoz, Suisse
194 3341 TORNAY STEPHANE 03:04:40:00 G1 13 0.00 SAXON, Suisse
195 3149 DESLARZES JULIEN 03:05:22:00 C 34 0.00 Versegères, Suisse
196 3150 FARQUET JEREMY 03:05:22:00 C 35 0.00 Bruson, Suisse
197 3052 ABATE DAVID 03:05:23:00 E 40 0.00 Savièse, Suisse
198 3367 LANNERS JACQUES 03:05:52:00 F 33 0.00 randogne, Suisse
199 3159 DE COMBEJEAN XAVIER 03:05:55:00 E 41 0.00 La Vancelle, France
200 3347 MAGRI CARLO 03:06:06:00 E 42 0.00 Monthey, Suisse
201 3361 FRIEDSUM SEBASTIEN 03:06:12:00 D 39 0.00 , Allemagne
202 3284 SEILER PASCAL 03:07:06:00 E 43 0.00 VOUVRY, Suisse
203 3184 TACCOZ PATRIC 03:07:21:00 E 44 0.00 SION, Suisse
204 3051 LUISIER JEAN-MICHEL 03:07:22:00 F 34 0.00 RIDDES, Suisse
205 3202 WENK PATRICK 03:07:32:00 F 35 0.00 ESCHENZ, Suisse
206 3107 ZUFFEREY PASCAL 03:07:51:00 E 45 0.00 Chippis, Suisse
207 3158 KAULBARS ROLAND 03:08:24:00 E 46 0.00 Wallbach, Suisse
208 3395 CHAMBOVAY EDOUARD 03:08:43:00 D 40 0.00 , Suisse
209 3246 DORIA JEAN-PAUL 03:08:59:00 E 47 0.00 Erde, Suisse
210 3280 SAUTEUR ALAIN 03:09:06:00 F 36 0.00 Riaz, Suisse
211 3079 BENELLI FABIO 03:09:14:00 E 48 0.00 Confignon geneve, Suisse
212 3016 LIMPENNY MARTIN R 03:09:20:00 F 37 0.00 London, Royaume-Uni
213 3137 CACHOT JEAN-PIERRE 03:10:14:00 G2 6 0.00 Dugny (Leytron), Suisse
214 3408 FUMEAUX JONATHAN 03:10:19:00 AB 15 0.00 , Suisse
215 3123 FLUCK CEDRIC 03:10:34:00 E 49 0.00 St pierre de clages, Suisse
216 3348 MAGRI LAURE 03:10:54:00 AB 16 0.00 Monthey, Suisse
217 3183 DHAENENS DIMITRI 03:11:06:00 D 41 0.00 Wolvertem, Belgique
218 3239 BOVIER PATRICK 03:11:09:00 F 38 0.00 LUTRY, Suisse
219 3188 CLAUSS NATHALIE 03:11:29:00 B 2 0.00 Riaz, Suisse
220 3060 PETER ROMAIN 03:11:39:00 D 42 0.00 SION, Suisse
221 3360 FAVRE MELISSA-ANAELLE 03:11:53:00 A 13 0.00 Verbier, Suisse
222 3007 JORIS GERARD 03:12:09:00 G2 7 0.00 BASSE-NENDAZ, Suisse
223 3214 CEYSENS GILLES 03:12:18:00 E 50 0.00 Nimy, Belgique
224 3196 BURKHALTER DANIEL 03:12:44:00 E 51 0.00 Le Landeron, Suisse
225 3162 BOULET CLAUDIA 03:13:38:00 A 14 0.00 Vevey, Suisse
226 3063 HENRIOD CRISTA 03:14:29:00 B 3 0.00 Vex, Suisse
227 3310 SCHUMACHER GERHARD 03:14:30:00 F 39 0.00 Mittelhäusern, Suisse
228 3412 FERNANDO FERNANDO 03:14:43:00 E 52 0.00 Borja, Espagne
229 3331 MEYLAN PATRICK 03:15:26:00 F 40 0.00 cheseaux, Suisse
230 3216 GIGER THOMAS 03:16:34:00 F 41 0.00 FULLY, Suisse
231 3242 BOURQUIN JEAN-FRANCOIS 03:16:34:00 G1 14 0.00 Diesse, Suisse
232 3329 BAERISWYL THOMAS 03:16:34:00 E 53 0.00 Aven, Suisse
233 3269 MOULIN LEO 03:16:40:00 G1 15 0.00 Vollèges, Suisse
234 3189 CLAUSS PIERRE 03:16:46:00 F 42 0.00 Riaz, Suisse
235 3364 MELLY STEPHANE 03:17:02:00 E 54 0.00 Sierre, Suisse
236 3363 COURTINE THIERRY 03:17:19:00 E 55 0.00 Savièse, Suisse
237 3394 BENEY MELANIE 03:17:39:00 A 15 0.00 , Suisse
238 3104 GARCES RODRIGUEZ GUILLERMO 03:17:46:00 D 43 0.00 VILLEURBANNE, France
239 3032 LOUP JEAN-FRANCOIS 03:18:25:00 F 43 0.00 BONVILLARS, Suisse
240 3210 PIEMONTESI CYRIL 03:18:30:00 D 44 0.00 Lausanne, Suisse
241 3211 BUDAI BALAZS 03:18:30:00 C 36 0.00 St Sulpice, Suisse
242 3003 GATTONI FABIAN 03:18:49:00 D 45 0.00 GENèVE, Suisse
243 3283 DE BENETTI DANIEL 03:18:54:00 F 44 0.00 Gumefens, France
244 3259 GABERELL PHILIPPE 03:19:14:00 F 45 0.00 CHAMPAGNE, Suisse
245 3294 BONVIN GEORGES 03:19:31:00 G1 16 0.00 Lens, Suisse
246 3187 CLAUSS JEROME 03:19:47:00 C 37 0.00 Riaz, Suisse
247 3027 COPT PIERRE-YVES 03:19:52:00 E 56 0.00 La Garde, Suisse
248 3023 GONIN PHILIPPE 03:19:59:00 E 57 0.00 CHAMPAGNE, Suisse
249 3268 BARILE GIUSEPPE 03:20:07:00 F 46 0.00 Dällikon, Suisse
250 3336 Heye Tobias 03:21:35:00 E 58 0.00 Basel, Suisse
251 3337 Brantner Philipp 03:21:35:00 D 46 0.00 Binningen, Suisse
252 3297 WALPEN PATRICE 03:21:48:00 E 59 0.00 Bramois, Suisse
253 3118 REY FRANCOIS 03:21:49:00 F 47 0.00 Sion, Suisse
254 3164 MENARD CORALIE 03:22:21:00 B 4 0.00 Sautron, France
255 3037 CASTELLA CHRISTIAN 03:23:11:00 F 48 0.00 SORENS, Suisse
256 3038 CASTELLA ISABELLE 03:23:13:00 B 5 0.00 Sorens, Suisse
257 3168 NIVOIX CHRISTIAN 03:23:19:00 G2 8 0.00 Crans-Montana, Suisse
258 3136 VON GUNTEN LUDOVIC 03:23:34:00 E 60 0.00 Noville, Suisse
259 3203 RIGO MANU 03:23:34:00 F 49 0.00 Andenne, Belgique
260 3266 LOURENCO FEIRREIRA RICARDO 03:23:35:00 C 38 0.00 Aigle, Suisse
261 3039 BUGNON PIERRE-ALAIN 03:24:14:00 F 50 0.00 ROMANENS, Suisse
262 3238 DUPONT CHRISTOPHE 03:24:49:00 D 47 0.00 CHAMOSON, Suisse
263 3385 DU BOIS XAVIER 03:24:50:00 D 48 0.00 Kraainem, Belgique
264 3151 BETTEX LAETITIA 03:25:03:00 A 16 0.00 Morges, Suisse
265 3043 JAQUES NICOLAS 03:25:05:00 E 61 0.00 ORON LA VILLE, Suisse
266 3305 STUCKI BEATRICE 03:25:07:00 B 6 0.00 Biberist, Suisse
267 3028 ROUILLER SAMUEL 03:25:12:00 E 62 0.00 Muraz, Suisse
268 3140 VANDEWEGHE BRUNO 03:25:21:00 F 51 0.00 Riaz, Suisse
269 3044 SANTOS ROBERTO 03:25:31:00 E 63 0.00 CHAVANNES-LES-FORTS, Suisse
270 3265 DEVOUCOUX ANNE 03:25:55:00 A 17 0.00 Sallanches, France
271 3235 CURTOLI PAOLO 03:27:35:00 F 53 0.00 MONTHEY, Suisse
272 3321 SCHONBETT HERVE 03:27:35:00 F 52 0.00 Val d illiez, Suisse
273 3135 CORNELLI MIRCO 03:27:49:00 F 54 0.00 Villeneuve, Suisse
274 3112 HOLENWEG ERIKA 03:27:54:00 B 7 0.00 Maisprach, Suisse
275 3251 SAUSER PHILIPPE 03:28:04:00 F 55 0.00 leysin, Suisse
276 3386 LARRUE THIERRY 03:28:04:00 F 56 0.00 CRANS MONTANA, Suisse
277 3404 AUBERT PATRICE 03:30:06:00 E 64 0.00 CHAMOSON, Suisse
278 3194 BOTET LESLEY 03:30:11:00 A 18 0.00 CHâTEL-ST-DENIS, Suisse
279 3035 BENVEGNEN PIERRE 03:30:51:00 G2 9 0.00 SEIGNEUX, Suisse
280 3114 MICHOS NIKOLAOS 03:31:45:00 D 49 0.00 BRUSSELS, Belgique
281 3062 FOLLY OLIVIER 03:32:12:00 F 57 0.00 MARLY, Suisse
282 3346 KAMERZIN SIDNEY 03:32:23:00 E 65 0.00 Sierre, Suisse
283 3155 LINK CARSTEN 03:32:52:00 E 66 0.00 La Tour-de-Peilz, Suisse
284 3382 PALAZZO MAX 03:33:24:00 D 50 0.00 , Suisse
285 3227 CARLSON HEATHER 03:34:57:00 A 19 0.00 Geneva, Canada
286 3102 FAVRE OLIVIER 03:35:14:00 E 67 0.00 Pont-de-la-Morge, Suisse
287 3075 SCHACKEMY VICTOR 03:36:17:00 C 39 0.00 MULHOUSE, France
288 3083 LEUENBERGER SYLVAIN 03:36:23:00 E 68 0.00 Champagne, Suisse
289 3073 MAIRE-AMIOT GILLES 03:36:34:00 F 58 0.00 PONTARLIER, France
290 3070 DURRENBERGER SAMUEL 03:36:41:00 D 51 0.00 BUTTES, Suisse
291 3133 PILLONEL STEPHANE 03:37:32:00 C 40 0.00 YVONAND, Suisse
292 3132 OBERLI AMANDINE 03:37:45:00 A 20 0.00 Epesses, Suisse
293 3110 MORET OLIVIER 03:38:34:00 F 59 0.00 turin, Suisse
294 3237 DUPONT MELANIE 03:38:34:00 A 21 0.00 Chamoson, Suisse
295 3006 Fournier Patrick 03:38:40:00 F 60 0.00 Haute Nendaz, Suisse
296 3042 BONGIOVANNI JEAN LUC 03:38:40:00 G1 17 0.00 Haute-Nendaz, Suisse
297 3224 SEURET CEDRIC 03:40:48:00 E 69 0.00 Courtételle, Suisse
298 3018 CARRUPT STEVE 03:41:48:00 E 70 0.00 COLLOMBEY, Suisse
299 3005 PARVEX ERIC 03:41:54:00 E 71 0.00 COLLOMBEY, Suisse
300 3365 CONSTANTIN PHILIPPE 03:44:47:00 E 72 0.00 ICOGNE, Suisse
301 3327 COLLONGE PHILIPPE 03:44:53:00 F 61 0.00 Lens, Suisse
302 3050 BIDAUD SANDRINE 03:45:48:00 A 23 0.00 Monthey, Suisse
303 3067 POT CINDY 03:45:48:00 A 22 0.00 Vionnaz, Suisse
304 3057 LOCHER DAMIAN 03:46:43:00 C 41 0.00 Salgesch, Suisse
305 3291 HUNZIKER OLIVIER 03:47:25:00 E 73 0.00 lausanne, Suisse
306 3247 GUIHO PHILIPPE 03:47:51:00 G1 18 0.00 landevant, France
307 3026 FUMEAUX PASCAL 03:47:55:00 F 62 0.00 Conthey, Suisse
308 3207 GAILLE CHRISTIAN 03:49:00:00 F 63 0.00 nyon, Suisse
309 3036 LELIE KATLEEN 03:50:09:00 AB 17 0.00 Moerzeke, Belgique
310 3088 KNUBEL THOMAS 03:51:30:00 F 64 0.00 VéTROZ, Suisse
311 3301 VASILE SEBASTIEN 03:51:32:00 G2 10 0.00 Tavannes, Suisse
312 3180 VALLET EMMANUEL 03:51:59:00 E 74 0.00 bramois, Suisse
313 3300 NEYRET HERVE 03:54:18:00 F 65 0.00 Epalinges, Suisse
314 3335 MOOSER MICHEL 03:54:57:00 G1 19 0.00 SION, Suisse
315 3396 GIRARD MICHEL 03:55:17:00 G2 11 0.00 Echenans sous mont Vaudois, France
316 3025 HIRSBRUNNER MARC 03:57:16:00 F 66 0.00 BOSSONNENS, Suisse
317 3201 VIONNET PASCAL 03:58:54:00 F 67 0.00 Grandvaux, Suisse
318 3144 CARDONI MYRIAM 04:00:50:00 B 8 0.00 Verbier, Suisse
319 3368 STOCKER HANS-JOACHIM 04:01:34:00 G2 12 0.00 Bad Rappenau, Allemagne
320 3061 GROEN STOCKER DOMINIQUE 04:03:26:00 AB 18 0.00 Gateshead, Royaume-Uni
321 3308 ROUILLER JEAN 04:05:37:00 D 52 0.00 Martigny, Suisse
322 3147 WALES FREDERIC 04:06:07:00 F 68 0.00 Baillet-en-France, France
323 3148 WALES GABRIELLE 04:07:08:00 A 24 0.00 Baillet-en-France, France
324 3249 DE GROOF JAN 04:07:23:00 F 69 0.00 Knokke, Belgique
325 3230 DEMOULIN CATHERINE 04:08:22:00 B 9 0.00 Boncelles, Belgique
326 3143 MORAND JEAN-PIERRE 04:10:19:00 G1 20 0.00 Verbier, Suisse
327 3197 GONZALEZ MANUEL 04:10:57:00 F 70 0.00 Le Landeron, Suisse
328 3124 KURMANN MARTINA 04:12:26:00 AB 19 0.00 1928 Ravoire, Suisse
329 3309 POLONI ENRICO 04:13:54:00 E 75 0.00 Chamoille, Suisse
330 3059 SOLSONA TRES MIGUEL 04:14:33:00 G2 13 0.00 SANT QUIRZE DEL VALLES (BARCELONA), Espagne
331 3290 BENNINK MARGOT 04:16:42:00 A 25 0.00 Leuk-Stadt, Suisse
332 3383 D AGOSTA ALEX 04:20:36:00 E 76 0.00 , Suisse
333 3293 GRAN NOLAN 04:20:49:00 XXX 8 0.00 Tavannes, Suisse
334 3108 PENSEYRES JEAN-FRANCOIS 04:21:52:00 G2 14 0.00 Fully, Suisse
335 3004 SCHMID PHILIPPE 04:22:39:00 F 71 0.00 MURAZ, Suisse
336 3013 KNUBEL PASCAL 04:22:40:00 E 77 0.00 COLLOMBEY, Suisse
337 3177 PAPAUX CARINE 04:27:16:00 AB 20 0.00 Chardonne, Suisse
338 3054 SORBELLINI ADRIANA 04:28:27:00 B 10 0.00 Torgon, Suisse
339 3186 SCOHY CHANTAL 04:31:08:00 B 11 0.00 Bruxelles, Belgique
340 3111 LAZZARANO FANY 04:35:19:00 AB 21 0.00 Pont-de-la-morge, Suisse
341 3244 ARMBRUSTER PHILIPPE 04:40:32:00 F 72 0.00 Ruschlikon, Suisse
342 3205 MUSTER JULIEN 04:40:50:00 C 42 0.00 Réchy, France
343 3086 BERCLAZ FABIENNE 04:41:39:00 B 12 0.00 Réchy, Suisse
344 3248 REBOREDO DANIEL 05:04:07:00 D 53 0.00 Bramois, France
345 3154 DUCRET MICHEL 05:06:52:00 G2 15 0.00 AMIENS, France
346 3391 Groundwater Nick 05:30:11:00 E 78 0.00 Twickenham, Royaume-Uni
347 3390 Watkyns Simon 05:43:19:00 E 79 0.00 Epsom, Royaume-Uni
348 3392 BANKI FRANS 05:46:55:00 D 54 0.00 Hove, Royaume-Uni
349 3393 PEGNA VICTORIA 05:51:47:00 AB 22 0.00 Hove, Royaume-Uni

La Picarde Baie de Somme

Après une saison 2020 très particulière et face à cette pandémie qui s'étire en longueur, nous avons dû nous adapter.

Ainsi, c'est avec beaucoup de regrets que nous vous annonçons que La Picarde Baie de Somme ne sera pas organisée en 2021.

Nous travaillons afin que vous puissiez relever le défi de manière alternative.

Nous vous tiendrons informés.
TOP